FXD409 KSAV-KLBB

Flight info

Callsign FXD409
Flight time N/A
Altitude 41000
Route SMALZ WIGVO DBN MINIM SQS J52 TXK SPS
Aircraft C68A/M-SBDGHM1RWXY/LB2

Departure

Time 2026-04-23 16:14
Airport Savannah Hilton Head International Airport (KSAV)

Arrival

Time N/A
Airport Lubbock Preston Smith International Airport (KLBB)
Time Latitude Longitude Altitude Speed Heading
2026-04-23 16:05 32.12573 -81.20617 66 ft 0 kts
2026-04-23 16:09 32.12580 -81.20593 46 ft 7 kts 107°
2026-04-23 16:10 32.12532 -81.20542 47 ft 12 kts 168°
2026-04-23 16:10 32.12506 -81.20476 48 ft 13 kts 89°
2026-04-23 16:10 32.12506 -81.20358 47 ft 14 kts 90°
2026-04-23 16:10 32.12506 -81.20263 47 ft 10 kts 89°
2026-04-23 16:11 32.12485 -81.20198 47 ft 10 kts 174°
2026-04-23 16:11 32.12400 -81.20198 45 ft 15 kts 180°
2026-04-23 16:11 32.12283 -81.20198 47 ft 18 kts 180°
2026-04-23 16:11 32.12158 -81.20198 47 ft 18 kts 178°
2026-04-23 16:12 32.12034 -81.20197 48 ft 18 kts 180°
2026-04-23 16:12 32.11911 -81.20195 48 ft 18 kts 179°
2026-04-23 16:12 32.11788 -81.20195 48 ft 18 kts 180°
2026-04-23 16:12 32.11684 -81.20187 48 ft 10 kts 150°
2026-04-23 16:13 32.11668 -81.20104 47 ft 13 kts 89°
2026-04-23 16:13 32.11831 -81.20005 44 ft 61 kts 359°
2026-04-23 16:13 32.12595 -81.20008 50 ft 155 kts 359°
2026-04-23 16:14 32.13856 -81.20022 635 ft 204 kts 358°
2026-04-23 16:14 32.15462 -81.20074 1329 ft 246 kts 357°
2026-04-23 16:14 32.17150 -81.20148 2575 ft 236 kts 354°
2026-04-23 16:14 32.18759 -81.20336 3691 ft 233 kts 354°
2026-04-23 16:15 32.20359 -81.20553 4948 ft 235 kts 351°
2026-04-23 16:15 32.21850 -81.21358 6290 ft 243 kts 319°
2026-04-23 16:15 32.22883 -81.22951 7583 ft 248 kts 303°
2026-04-23 16:15 32.23909 -81.24609 8825 ft 253 kts 310°
2026-04-23 16:16 32.25165 -81.26086 10074 ft 257 kts 316°
2026-04-23 16:16 32.26043 -81.27046 10805 ft 260 kts 315°
2026-04-23 16:16 32.27319 -81.28562 11977 ft 262 kts 312°
2026-04-23 16:16 32.28585 -81.30136 13132 ft 265 kts 313°
2026-04-23 16:17 32.29902 -81.31684 14203 ft 269 kts 314°
2026-04-23 16:17 32.31238 -81.33250 15180 ft 273 kts 313°
2026-04-23 16:17 32.32579 -81.34866 16108 ft 277 kts 313°
2026-04-23 16:17 32.33955 -81.36500 17065 ft 282 kts 313°
2026-04-23 16:18 32.35341 -81.38171 17977 ft 287 kts 313°
2026-04-23 16:18 32.36751 -81.39839 18780 ft 291 kts 314°
2026-04-23 16:18 32.38199 -81.41571 19581 ft 293 kts 313°
2026-04-23 16:18 32.39624 -81.43300 20376 ft 295 kts 314°
2026-04-23 16:19 32.41085 -81.44994 21157 ft 299 kts 315°
2026-04-23 16:19 32.42545 -81.46760 22009 ft 301 kts 313°
2026-04-23 16:19 32.44013 -81.48555 22835 ft 305 kts 314°
2026-04-23 16:19 32.45476 -81.50393 23653 ft 308 kts 307°
2026-04-23 16:20 32.46564 -81.52588 24349 ft 311 kts 294°
2026-04-23 16:20 32.47237 -81.55032 24992 ft 314 kts 281°
2026-04-23 16:20 32.47416 -81.57623 25651 ft 317 kts 269°
2026-04-23 16:20 32.47299 -81.60253 26284 ft 321 kts 269°
2026-04-23 16:21 32.47215 -81.62904 26928 ft 324 kts 269°
2026-04-23 16:21 32.47136 -81.65583 27546 ft 327 kts 268°
2026-04-23 16:21 32.47022 -81.68280 28179 ft 329 kts 269°
2026-04-23 16:21 32.46933 -81.71001 28786 ft 332 kts 268°
2026-04-23 16:22 32.46812 -81.73714 29370 ft 335 kts 268°
2026-04-23 16:22 32.46713 -81.76485 29954 ft 338 kts 268°
2026-04-23 16:22 32.46627 -81.79276 30484 ft 340 kts 268°
2026-04-23 16:22 32.46510 -81.82087 30972 ft 344 kts 267°
2026-04-23 16:23 32.46383 -81.84924 31447 ft 346 kts 268°
2026-04-23 16:23 32.46288 -81.87790 31894 ft 349 kts 269°
2026-04-23 16:23 32.46195 -81.90675 32364 ft 352 kts 268°
2026-04-23 16:23 32.46070 -81.93581 32822 ft 355 kts 268°
2026-04-23 16:24 32.45946 -81.96504 33260 ft 358 kts 268°
2026-04-23 16:24 32.45839 -81.99458 33687 ft 361 kts 268°
2026-04-23 16:24 32.45728 -82.02433 34091 ft 363 kts 269°
2026-04-23 16:24 32.45882 -82.05424 34453 ft 364 kts 280°
2026-04-23 16:25 32.46308 -82.08360 34791 ft 367 kts 280°
2026-04-23 16:25 32.46703 -82.11357 35141 ft 369 kts 279°
2026-04-23 16:25 32.47108 -82.14364 35491 ft 371 kts 280°
2026-04-23 16:25 32.47530 -82.17382 35824 ft 373 kts 281°
2026-04-23 16:26 32.47954 -82.20423 36166 ft 375 kts 280°
2026-04-23 16:26 32.48362 -82.23440 36473 ft 377 kts 280°
2026-04-23 16:26 32.48783 -82.26546 36804 ft 379 kts 281°
2026-04-23 16:26 32.49198 -82.29587 37119 ft 381 kts 281°
2026-04-23 16:27 32.49621 -82.32693 37412 ft 383 kts 281°
2026-04-23 16:27 32.50044 -82.35809 37700 ft 385 kts 281°
2026-04-23 16:27 32.50475 -82.38992 37990 ft 386 kts 281°
2026-04-23 16:27 32.50894 -82.42099 38307 ft 388 kts 281°